Weather History for Elmira, NY

Change the Weather History Date:

Thursday, June 20, 2013

  Actual Average Record
Temperature  
Mean Temperature 60 °F -  
Max Temperature 82 °F 79 °F 98 °F (1931)
Min Temperature 41 °F 55 °F 39 °F (1926)
Degree Days  
Heating Degree Days 4    
Growing Degree Days 10 (Base 50)    
Moisture  
Dew Point 47 °F    
Average Humidity 62    
Maximum Humidity 93    
Minimum Humidity 35    
Precipitation  
Precipitation 0.00 in - - ()
Sea Level Pressure  
Sea Level Pressure 30.22 in    
Wind  
Wind Speed 2 mph (WNW)    
Max Wind Speed 9 mph    
Max Gust Speed -    
Visibility 10 miles    
Events      
Averages and records for this station are not official NWS values.
T = Trace of Precipitation, MM = Missing Value Source: NWS Daily Summary

Daily Weather History Graph

Daily Weather History Graph

Search for Another Location

Airport:

Trip Planner

Search our weather history database for the weather conditions in past years. The results will help you decide how hot, cold, wet, or windy it might be!

Date:

Astronomy

Jun. 20, 2013 Rise Set
Actual Time 5:31 AM EDT 8:47 PM EDT
Civil Twilight 4:56 AM EDT 9:21 PM EDT
Nautical Twilight 4:12 AM EDT 10:06 PM EDT
Astronomical Twilight 3:17 AM EDT 11:00 PM EDT
Moon 5:45 PM EDT (6/20) 2:58 AM EDT (6/20)
Length of Visible Light 16h 24m
Length of Day
15h 15m
Waxing Gibbous, 89% of the Moon is Illuminated
Jun 20
Waxing Gibbous
Jun 23
Full
Jun 30
Last Quarter
Jul 8
New
Jul 15
First Quarter

Hourly Weather History & Observations

Time (EDT) Temp. Dew Point Humidity Pressure Visibility Wind Dir Wind Speed Gust Speed Precip Events Conditions
12:53 AM 46.0 °F 43.0 °F 89% 30.22 in 10.0 mi Calm Calm - N/A   Clear
1:53 AM 43.0 °F 41.0 °F 93% 30.23 in 10.0 mi Calm Calm - N/A   Clear
2:53 AM 44.1 °F 39.9 °F 85% 30.23 in 10.0 mi Calm Calm - N/A   Clear
3:53 AM 42.1 °F 39.0 °F 89% 30.22 in 10.0 mi Calm Calm - N/A   Clear
4:53 AM 41.0 °F 39.0 °F 93% 30.24 in 10.0 mi Calm Calm - N/A   Clear
5:53 AM 42.1 °F 39.9 °F 92% 30.26 in 10.0 mi Calm Calm - N/A   Clear
6:53 AM 46.0 °F 43.0 °F 89% 30.26 in 10.0 mi Calm Calm - N/A   Clear
7:53 AM 50.0 °F 45.0 °F 83% 30.27 in 10.0 mi Calm Calm - N/A   Clear
8:53 AM 57.0 °F 46.9 °F 69% 30.27 in 10.0 mi Calm Calm - N/A   Clear
9:53 AM 64.0 °F 46.9 °F 54% 30.25 in 10.0 mi Calm Calm - N/A   Clear
10:53 AM 69.1 °F 48.9 °F 49% 30.25 in 10.0 mi South 3.5 mph - N/A   Clear
11:53 AM 73.9 °F 50.0 °F 43% 30.23 in 10.0 mi West 6.9 mph - N/A   Clear
12:53 PM 75.9 °F 51.1 °F 42% 30.22 in 10.0 mi West 9.2 mph - N/A   Scattered Clouds
1:53 PM 79.0 °F 51.1 °F 38% 30.21 in 10.0 mi WSW 8.1 mph - N/A   Clear
2:53 PM 80.1 °F 51.1 °F 36% 30.20 in 10.0 mi Variable 5.8 mph - N/A   Clear
3:53 PM 80.1 °F 50.0 °F 35% 30.20 in 10.0 mi Variable 3.5 mph - N/A   Clear
4:53 PM 77.0 °F 50.0 °F 39% 30.19 in 10.0 mi Variable 3.5 mph - N/A   Mostly Cloudy
5:53 PM 80.1 °F 50.0 °F 35% 30.18 in 10.0 mi West 6.9 mph - N/A   Clear
6:53 PM 78.1 °F 51.1 °F 39% 30.18 in 10.0 mi West 4.6 mph - N/A   Partly Cloudy
7:53 PM 73.0 °F 55.9 °F 55% 30.18 in 10.0 mi NE 3.5 mph - N/A   Clear
8:53 PM 69.1 °F 53.1 °F 57% 30.19 in 10.0 mi East 8.1 mph - N/A   Partly Cloudy
9:53 PM 66.0 °F 50.0 °F 56% 30.22 in 10.0 mi NE 4.6 mph - N/A   Partly Cloudy
10:53 PM 62.1 °F 48.0 °F 60% 30.24 in 10.0 mi ENE 6.9 mph - N/A   Partly Cloudy
11:53 PM 55.9 °F 48.9 °F 77% 30.25 in 10.0 mi Calm Calm - N/A   Partly Cloudy